Location: Unspecified
(0.0000°N, 0.0000°E)
Time: 07:49:12
(UTC+00:00)

OBJECT M - Visible Passes

Search period start: 14 April 2024 00:00
Search period end: 24 April 2024 00:00
Orbit: 569 x 582 km, 97.4° (Epoch: 13 April)

Date Brightness Start Highest point End Pass type
(mag) Time Alt. Az. Time Alt. Az. Time Alt. Az.
14 Apr ? 18:19:07 10° NNW 18:22:45 31° WNW 18:26:23 10° SW visible
15 Apr ? 18:22:50 10° NNW 18:26:20 27° W 18:29:50 10° SW visible
16 Apr ? 04:52:11 10° E 04:53:08 11° ENE 04:54:04 10° ENE visible
16 Apr ? 18:26:33 10° NNW 18:29:54 24° WNW 18:33:14 10° SW visible
17 Apr ? 04:55:01 10° ESE 04:56:41 12° ENE 04:58:22 10° NE visible
17 Apr ? 18:30:18 10° NNW 18:33:27 21° WNW 18:36:36 10° SW visible
18 Apr ? 04:58:05 10° ESE 05:00:14 14° ENE 05:02:23 10° NE visible
18 Apr ? 18:34:05 10° NNW 18:36:59 19° WNW 18:39:55 10° SW visible
19 Apr ? 05:01:16 10° ESE 05:03:46 16° E 05:06:17 10° NE visible
19 Apr ? 18:37:52 10° NW 18:40:31 17° WNW 18:43:10 10° WSW visible
20 Apr ? 05:04:30 10° ESE 05:07:18 18° ENE 05:10:06 10° NE visible
20 Apr ? 18:41:43 10° NW 18:44:03 15° WNW 18:46:23 10° WSW visible
21 Apr ? 05:07:47 10° SE 05:10:49 20° ENE 05:13:51 10° NNE visible
21 Apr ? 18:45:37 10° NW 18:47:33 13° WNW 18:49:29 10° WSW visible
22 Apr ? 05:11:05 10° SE 05:14:19 23° ENE 05:17:34 10° NNE visible
22 Apr ? 18:49:41 10° WNW 18:51:03 11° WNW 18:52:26 10° W visible
23 Apr ? 05:14:23 10° SE 05:17:49 26° ENE 05:21:13 10° NNE visible
